Weather Roundup
Issued by NWS Chicago, IL

Home | Current Version | Previous Version | Text Only | Print | Product List | Glossary On
Versions: 1 2 3 4 5 6 7 8 9 10 11 12 13 14 15 16 17 18 19 20 21 22 23 24 25 26 27 28 29 30 31 32 33 34 35 36 37 38 39 40 41 42 43 44 45 46 47 48 49 50
000
NZUS59 KLOT 041310
HRRLOT

CHICAGO AREA WEATHER ROUNDUP
NATIONAL WEATHER SERVICE CHICAGO/ROMEOVILLE IL
700 AM CST WED MAR 04 2015

NOTE: "FAIR" INDICATES FEW OR NO CLOUDS BELOW 12,000 FEET WITH NO
SIGNIFICANT WEATHER AND/OR OBSTRUCTIONS TO VISIBILITY.

* THESE STATIONS ARE NOT UNDER NWS QUALITY CONTROL. THEY ALSO MAY NOT
  REPORT WEATHER SUCH AS PRECIPITATION OR FOG.

ILZ005-006-012>014-019>023-041400-
NORTHEAST ILLINOIS

CITY           SKY/WX    TMP DP  RH WIND       PRES   REMARKS
OHARE          MOCLDY    17  10  74 NW9       30.02R WCI   6
MIDWAY         MOCLDY    20  13  74 NW10      30.03R WCI   9
AURORA         PTCLDY    12   5  73 NW16      30.06R WCI  -5
LANSING*       PTCLDY    21  15  76 NW12      30.02R WCI  10
JOLIET*        CLEAR     14   8  76 NW9       30.07R WCI   2
WAUKEGAN       PTCLDY    17  10  74 NW9       30.00S WCI   6
DUPAGE AIRPORT CLEAR     14   7  73 NW13      30.03R WCI   0
WHEELING       CLEAR     17  10  74 NW10      30.03R WCI   5
KANKAKEE*      PTCLDY    18  12  79 NW9       30.05R WCI   6
MORRIS*        CLEAR     12   8  83 NW10      30.06S WCI  -1
LEWIS AIRPORT* CLEAR     14   9  78 NW15      30.05R WCI  -1
NORTHERLY IS     N/A     22  15  75 W8          N/A  WCI  13
$$

WIZ051-052-058>065-066-070>072-041400-
SOUTHEAST WISCONSIN

CITY           SKY/WX    TMP DP  RH WIND       PRES   REMARKS
MILWAUKEE      MOCLDY    16   3  56 NW15      30.03R WCI   1
KENOSHA*       PTCLDY    16   9  74 NW6       30.01S WCI   7
RACINE*        PTCLDY    16   4  59 NW9       30.03R WCI   4
BURLINGTON     PTCLDY    13   6  74 NW14G20   30.02S WCI  -2
WAUKESHA       PTCLDY    12   3  67 NW12G23   30.02R WCI  -2
WEST BEND      MOCLDY    10   1  67 W14       30.01R WCI  -5
$$

INZ001>003-010>013-019-020-041400-
NORTHWEST INDIANA

CITY           SKY/WX    TMP DP  RH WIND       PRES   REMARKS
GARY*          MOCLDY    25  14  63 W20       30.02R WCI  11
MICHIGAN CITY* NOT AVBL
RENSSELAER*    NOT AVBL
VALPARAISO     CLOUDY    26  20  77 NW10G17   29.99R WCI  16
$$

LMZ740>746-041400-
SOUTHERN LAKE MICHIGAN

STATION/POSITION TIME  SKY/WX   TEMP WIND        PRES    VSBY
                                AIR  DIR/SP/G
                 (UTC)          (F)  (DEG/KT/KT) (MB)    (MI)
HARRISON CRIB    1300            21  300/ 15/ 19   N/A
BURNHAM HARBOR   1300            22  300/  8/ 13   N/A
CALUMET HARBOR   1300            21  280/ 11/ 16 1015.3S
BURNS HARBOR     NOT AVBL
MICHIGAN CITY    1300            25  270/ 18/ 22   N/A
$$

ABBREVIATIONS USED IN REMARKS
   TC - TEMPERATURE IN CELSIUS
  WCI - WIND CHILL INDEX
   HX - HEAT INDEX
  VSB - VISIBILITY
$$


USA.gov is the U.S. government's official web portal to all federal, state and local government web resources and services.